FW8685 Weather Reports


time (UTC)temp
F
wind
direction
speed
knots
gust
knots
rain 1hr
in
rain 24hr
in
rain mn
in
humidity
%
barometer
mb
20260904092523 75 108 3.5 7.0 0.00 0.00 0.00 79 1010.4
20260904092024 75 111 3.5 7.0 0.00 0.00 0.00 79 1010.3
20260904091544 75 93 4.3 7.0 0.00 0.00 0.00 78 1010.2
20260904091025 76 105 3.5 6.1 0.00 0.00 0.00 77 1010.2
20260904090525 76 118 2.6 5.2 0.00 0.00 0.00 77 1010.2
20260904090043 76 107 3.5 5.2 0.00 0.00 0.00 76 1010.1
20260904085525 76 121 3.5 6.1 0.00 0.00 0.00 76 1010.1
20260904085022 77 111 3.5 6.1 0.00 0.00 0.00 75 1010.1
20260904084542 77 116 3.5 5.2 0.00 0.00 0.00 75 1010.0
20260904084024 77 119 2.6 6.1 0.00 0.00 0.00 75 1010.1
20260904083524 77 127 2.6 7.0 0.00 0.00 0.00 74 1010.2
20260904083047 77 123 2.6 7.0 0.00 0.00 0.00 74 1010.2
20260904082526 78 123 3.5 7.0 0.00 0.00 0.00 74 1010.1
20260904082027 78 115 3.5 7.0 0.00 0.00 0.00 73 1010.1
20260904081543 78 123 3.5 7.0 0.00 0.00 0.00 73 1010.2
20260904081023 78 101 3.5 7.8 0.00 0.00 0.00 72 1010.1
20260904080524 79 131 3.5 7.8 0.00 0.00 0.00 72 1010.0
20260904080049 79 121 3.5 7.0 0.00 0.00 0.00 72 1010.1
20260904075520 79 114 4.3 7.8 0.00 0.00 0.00 71 1010.2
20260904075024 79 109 4.3 7.8 0.00 0.00 0.00 71 1010.2
20260904074546 79 131 3.5 7.8 0.00 0.00 0.00 71 1010.2
20260904074025 80 150 4.3 7.8 0.00 0.00 0.00 70 1010.3
20260904073522 80 143 3.5 10.4 0.00 0.00 0.00 70 1010.3
20260904073048 80 153 5.2 11.3 0.00 0.00 0.00 70 1010.4
20260904072523 80 119 5.2 11.3 0.00 0.00 0.00 70 1010.4
20260904072027 80 151 5.2 12.2 0.00 0.00 0.00 70 1010.3
20260904071544 80 130 7.8 13.0 0.00 0.00 0.00 69 1010.3
20260904071025 80 135 7.8 13.0 0.00 0.00 0.00 69 1010.2
20260904070525 80 130 7.0 12.2 0.00 0.00 0.00 69 1010.2
20260904070052 80 121 7.8 12.2 0.00 0.00 0.00 69 1010.1
20260904065525 80 132 7.8 12.2 0.00 0.00 0.00 69 1010.1
20260904065024 80 134 7.8 13.0 0.00 0.00 0.00 69 1010.2
20260904064546 80 110 7.0 13.0 0.00 0.00 0.00 69 1010.2
20260904064024 80 119 7.0 13.0 0.00 0.00 0.00 69 1010.2
20260904063523 80 115 7.0 13.0 0.00 0.00 0.00 70 1010.2
20260904063043 80 129 7.0 13.0 0.00 0.00 0.00 70 1010.1
20260904062524 80 128 6.1 13.0 0.00 0.00 0.00 70 1010.0
20260904062024 80 131 7.8 14.8 0.00 0.00 0.00 70 1010.0
20260904061542 80 127 8.7 14.8 0.00 0.00 0.00 71 1010.0
20260904061024 80 116 6.1 13.0 0.00 0.00 0.00 71 1010.0
20260904060524 80 146 6.1 13.0 0.00 0.00 0.00 71 1010.1
20260904060046 80 121 7.0 13.0 0.00 0.00 0.00 71 1009.9
20260904055523 80 124 6.1 12.2 0.00 0.00 0.00 71 1009.9
20260904055024 80 124 6.1 12.2 0.00 0.00 0.00 71 1009.9
20260904054546 80 116 7.0 11.3 0.00 0.00 0.00 71 1009.9
20260904054021 80 121 6.1 11.3 0.00 0.00 0.00 71 1009.9
20260904053524 80 136 7.8 11.3 0.00 0.00 0.00 71 1009.9
20260904053042 80 111 6.1 10.4 0.00 0.00 0.00 71 1009.8
20260904052527 80 108 5.2 8.7 0.00 0.00 0.00 71 1009.7
20260904052024 80 114 4.3 8.7 0.00 0.00 0.00 70 1009.8
20260904051541 81 105 5.2 8.7 0.00 0.00 0.00 70 1009.9
20260904051021 81 121 4.3 10.4 0.00 0.00 0.00 70 1009.9
20260904050523 81 134 4.3 10.4 0.00 0.00 0.00 70 1009.8
20260904050046 81 129 6.1 10.4 0.00 0.00 0.00 70 1009.7
20260904045525 81 109 5.2 10.4 0.00 0.00 0.00 69 1009.6
20260904045024 81 113 7.0 10.4 0.00 0.00 0.00 69 1009.7
20260904044545 81 105 6.1 13.9 0.00 0.00 0.00 69 1009.6
20260904044023 82 102 7.0 13.9 0.00 0.00 0.00 69 1009.5
20260904043525 82 107 8.7 13.9 0.00 0.00 0.00 68 1009.5
20260904043050 82 101 8.7 13.9 0.00 0.00 0.00 68 1009.5
20260904042523 82 121 7.8 12.2 0.00 0.00 0.00 68 1009.6
20260904042024 82 102 7.0 13.0 0.00 0.00 0.00 68 1009.5
20260904041543 82 106 8.7 13.0 0.00 0.00 0.00 68 1009.6
20260904041023 82 109 7.0 11.3 0.00 0.00 0.00 67 1009.6
20260904040525 82 96 7.0 11.3 0.00 0.00 0.00 67 1009.6
20260904040058 82 108 7.8 13.0 0.00 0.00 0.00 67 1009.6
20260904035523 83 101 7.0 13.0 0.00 0.00 0.00 67 1009.6
20260904035025 83 98 7.0 9.6 0.00 0.00 0.00 67 1009.7
20260904034550 83 102 7.0 9.6 0.00 0.00 0.00 66 1009.7
20260904034024 83 100 6.1 11.3 0.00 0.00 0.00 66 1009.8
20260904033525 83 111 7.0 11.3 0.00 0.00 0.00 66 1009.8
20260904033047 83 100 7.0 11.3 0.00 0.00 0.00 65 1009.8
20260904032524 84 107 7.0 9.6 0.00 0.00 0.00 65 1009.8
20260904032025 84 113 6.1 9.6 0.00 0.00 0.00 65 1009.7
20260904031544 84 103 6.1 11.3 0.00 0.00 0.00 64 1009.7
20260904031025 84 105 6.1 11.3 0.00 0.00 0.00 64 1009.7
20260904030521 85 105 7.0 11.3 0.00 0.00 0.00 63 1009.8
20260904030044 85 105 6.1 8.7 0.00 0.00 0.00 63 1009.6
20260904025524 85 105 5.2 11.3 0.00 0.00 0.00 63 1009.7
20260904025024 85 96 7.0 11.3 0.00 0.00 0.00 62 1009.6
20260904024548 86 109 7.0 11.3 0.00 0.00 0.00 62 1009.7
20260904024024 86 103 7.8 11.3 0.00 0.00 0.00 61 1009.6
20260904023526 86 111 7.0 11.3 0.00 0.00 0.00 61 1009.6
20260904023056 86 96 7.0 10.4 0.00 0.00 0.00 60 1009.6
20260904022523 86 101 7.0 12.2 0.00 0.00 0.00 60 1009.5
20260904022024 87 105 7.0 13.9 0.00 0.00 0.00 60 1009.3
20260904021543 87 101 8.7 13.9 0.00 0.00 0.00 59 1009.3
20260904021024 87 103 8.7 13.9 0.00 0.00 0.00 59 1009.3
20260904020524 87 107 7.8 13.9 0.00 0.00 0.00 58 1009.2
20260904020042 88 107 7.8 12.2 0.00 0.00 0.00 58 1009.2
20260904015528 88 115 7.8 12.2 0.00 0.00 0.00 57 1009.0
20260904015024 88 116 8.7 12.2 0.00 0.00 0.00 57 1008.9
20260904014558 89 114 8.7 13.9 0.00 0.00 0.00 56 1008.8
20260904014027 89 109 8.7 13.9 0.00 0.00 0.00 56 1008.7
20260904013524 89 106 9.6 13.9 0.00 0.00 0.00 55 1008.6
20260904013048 89 115 9.6 16.5 0.00 0.00 0.00 55 1008.5
20260904012523 90 123 11.3 16.5 0.00 0.00 0.00 54 1008.3
20260904012025 90 104 11.3 15.6 0.00 0.00 0.00 53 1008.2
20260904011544 90 105 8.7 14.8 0.00 0.00 0.00 53 1008.2
20260904011024 90 110 8.7 14.8 0.00 0.00 0.00 52 1008.0
20260904010524 91 95 8.7 16.5 0.00 0.00 0.00 51 1008.0
20260904010051 91 107 10.4 16.5 0.00 0.00 0.00 51 1008.0
20260904005523 92 112 9.6 13.9 0.00 0.00 0.00 50 1008.0
20260904005025 92 111 7.8 11.3 0.00 0.00 0.00 49 1008.0
20260904004546 92 93 7.8 11.3 0.00 0.00 0.00 49 1007.9
20260904004024 93 98 7.0 12.2 0.00 0.00 0.00 48 1007.8
20260904003525 93 107 7.0 12.2 0.00 0.00 0.00 47 1007.8
20260904003046 94 105 7.8 11.3 0.00 0.00 0.00 46 1007.7
20260904002524 94 110 7.0 13.0 0.00 0.00 0.00 45 1007.7
20260904002024 95 109 8.7 14.8 0.00 0.00 0.00 44 1007.6
20260904001545 95 104 9.6 15.6 0.00 0.00 0.00 44 1007.7
20260904001023 95 91 8.7 17.4 0.00 0.00 0.00 43 1007.6
20260904000526 96 111 9.6 17.4 0.00 0.00 0.00 43 1007.6
20260904000044 96 107 9.6 16.5 0.00 0.00 0.00 42 1007.6
20260903235524 96 144 7.0 16.5 0.00 0.00 0.00 42 1007.6
20260903235024 96 120 8.7 14.8 0.00 0.00 0.00 41 1007.5
20260903234547 97 125 8.7 15.6 0.00 0.00 0.00 41 1007.5
20260903234024 97 127 10.4 19.1 0.00 0.00 0.00 41 1007.5
20260903233526 97 110 12.2 19.1 0.00 0.00 0.00 40 1007.5
20260903233051 97 124 11.3 17.4 0.00 0.00 0.00 40 1007.5
20260903232524 98 118 10.4 18.2 0.00 0.00 0.00 39 1007.5
20260903232026 98 108 10.4 18.2 0.00 0.00 0.00 38 1007.5
20260903231548 98 117 10.4 17.4 0.00 0.00 0.00 38 1007.4
20260903231026 98 115 9.6 17.4 0.00 0.00 0.00 38 1007.5
20260903230528 99 113 10.4 17.4 0.00 0.00 0.00 38 1007.5
20260903230053 99 111 10.4 17.4 0.00 0.00 0.00 38 1007.5
20260903225526 99 117 11.3 17.4 0.00 0.00 0.00 38 1007.5
20260903225023 99 107 8.7 14.8 0.00 0.00 0.00 37 1007.4
20260903224605 99 117 8.7 20.9 0.00 0.00 0.00 37 1007.5
20260903224025 99 124 8.7 20.9 0.00 0.00 0.00 36 1007.5
20260903223524 99 106 10.4 20.0 0.00 0.00 0.00 36 1007.5
20260903223042 100 120 9.6 17.4 0.00 0.00 0.00 37 1007.4
20260903222528 100 111 9.6 16.5 0.00 0.00 0.00 37 1007.4
20260903222026 100 125 10.4 17.4 0.00 0.00 0.00 36 1007.3
20260903221542 100 107 11.3 17.4 0.00 0.00 0.00 36 1007.4
20260903221023 100 124 12.2 17.4 0.00 0.00 0.00 35 1007.4
20260903220523 100 117 8.7 16.5 0.00 0.00 0.00 35 1007.4
20260903220048 100 117 10.4 17.4 0.00 0.00 0.00 34 1007.4
20260903215535 101 107 10.4 17.4 0.00 0.00 0.00 35 1007.6
20260903215025 101 90 10.4 17.4 0.00 0.00 0.00 35 1007.6
20260903214605 101 131 8.7 17.4 0.00 0.00 0.00 34 1007.7
20260903214024 101 110 9.6 17.4 0.00 0.00 0.00 34 1007.6
20260903213525 101 96 11.3 17.4 0.00 0.00 0.00 33 1007.8
20260903213050 101 106 10.4 16.5 0.00 0.00 0.00 34 1007.8
20260903212528 101 94 9.6 16.5 0.00 0.00 0.00 36 1007.8
20260903212026 101 98 8.7 17.4 0.00 0.00 0.00 36 1007.8
20260903211543 100 126 10.4 19.1 0.00 0.00 0.00 37 1007.9
20260903211025 100 94 12.2 19.1 0.00 0.00 0.00 36 1008.0
20260903210524 101 101 12.2 17.4 0.00 0.00 0.00 37 1008.0
20260903210111 101 92 11.3 21.7 0.00 0.00 0.00 36 1008.1
20260903205525 101 98 12.2 21.7 0.00 0.00 0.00 38 1008.1
20260903205024 101 119 10.4 17.4 0.00 0.00 0.00 36 1008.3
20260903204548 100 106 10.4 18.2 0.00 0.00 0.00 38 1008.3
20260903204025 101 78 10.4 18.2 0.00 0.00 0.00 37 1008.4
20260903203525 100 123 11.3 18.2 0.00 0.00 0.00 37 1008.3
20260903203105 100 113 10.4 20.0 0.00 0.00 0.00 37 1008.5
20260903202524 100 100 13.9 20.0 0.00 0.00 0.00 37 1008.5
20260903202024 100 111 10.4 17.4 0.00 0.00 0.00 37 1008.6
20260903201548 100 117 10.4 21.7 0.00 0.00 0.00 37 1008.6
20260903201024 100 143 9.6 21.7 0.00 0.00 0.00 37 1008.7
20260903200523 100 112 14.8 21.7 0.00 0.00 0.00 38 1008.6
20260903200052 100 124 11.3 21.7 0.00 0.00 0.00 38 1008.7
20260903195525 100 134 10.4 17.4 0.00 0.00 0.00 36 1008.7
20260903195023 100 126 11.3 15.6 0.00 0.00 0.00 39 1008.7
20260903194542 99 94 11.3 19.1 0.00 0.00 0.00 39 1008.8
20260903194025 99 111 13.0 20.9 0.00 0.00 0.00 39 1008.9
20260903193522 100 106 10.4 20.9 0.00 0.00 0.00 39 1009.0
20260903193046 100 115 9.6 18.2 0.00 0.00 0.00 39 1009.0
20260903192525 99 113 10.4 20.0 0.00 0.00 0.00 40 1009.1
20260903192024 98 110 10.4 20.9 0.00 0.00 0.00 41 1009.1
20260903191545 99 115 11.3 20.9 0.00 0.00 0.00 40 1009.2
20260903191024 98 119 11.3 20.0 0.00 0.00 0.00 40 1009.3
20260903190524 98 119 11.3 17.4 0.00 0.00 0.00 42 1009.4
20260903190045 98 108 11.3 17.4 0.00 0.00 0.00 42 1009.4
20260903185525 98 98 12.2 17.4 0.00 0.00 0.00 41 1009.4
20260903185024 99 118 9.6 17.4 0.00 0.00 0.00 41 1009.6
20260903184548 99 92 8.7 14.8 0.00 0.00 0.00 41 1009.6
20260903184026 99 146 9.6 16.5 0.00 0.00 0.00 41 1009.7
20260903183524 98 124 10.4 16.5 0.00 0.00 0.00 41 1009.9
20260903183049 98 121 12.2 20.0 0.00 0.00 0.00 43 1009.9
20260903182525 97 136 9.6 20.0 0.00 0.00 0.00 42 1010.0
20260903182023 97 139 9.6 18.2 0.00 0.00 0.00 43 1010.0
20260903181544 97 155 11.3 18.2 0.00 0.00 0.00 43 1010.2
20260903181023 97 99 11.3 18.2 0.00 0.00 0.00 42 1010.2
20260903180525 98 101 7.0 18.2 0.00 0.00 0.00 44 1010.2
20260903180046 96 107 11.3 20.0 0.00 0.00 0.00 46 1010.3
20260903175524 95 110 12.2 20.0 0.00 0.00 0.00 46 1010.4
20260903175025 95 107 11.3 20.9 0.00 0.00 0.00 46 1010.4
20260903174542 95 115 13.9 20.9 0.00 0.00 0.00 47 1010.4
20260903174025 96 112 11.3 17.4 0.00 0.00 0.00 47 1010.4
20260903173529 95 136 11.3 17.4 0.00 0.00 0.00 46 1010.6
20260903173048 94 142 10.4 19.1 0.00 0.00 0.00 47 1010.7
20260903172526 95 130 10.4 20.9 0.00 0.00 0.00 47 1010.7
20260903172025 94 135 12.2 20.9 0.00 0.00 0.00 46 1010.8
20260903171547 94 121 13.0 20.9 0.00 0.00 0.00 47 1010.9
20260903171024 94 123 11.3 19.1 0.00 0.00 0.00 47 1010.8
20260903170523 94 131 11.3 17.4 0.00 0.00 0.00 48 1011.0
20260903170047 94 130 11.3 20.0 0.00 0.00 0.00 48 1011.1
20260903165525 93 98 11.3 20.9 0.00 0.00 0.00 50 1011.1
20260903165025 92 105 12.2 20.9 0.00 0.00 0.00 49 1011.1
20260903164549 92 146 13.0 20.0 0.00 0.00 0.00 50 1011.1
20260903164028 92 138 11.3 18.2 0.00 0.00 0.00 49 1011.2
20260903163526 92 146 10.4 22.6 0.00 0.00 0.00 52 1011.2
20260903163045 92 99 12.2 22.6 0.00 0.00 0.00 51 1011.2
20260903162527 92 134 12.2 17.4 0.00 0.00 0.00 52 1011.3
20260903162027 91 111 13.0 20.9 0.00 0.00 0.00 54 1011.4
20260903161541 91 123 9.6 20.9 0.00 0.00 0.00 53 1011.4
20260903161025 91 128 10.4 18.2 0.00 0.00 0.00 54 1011.4
20260903160524 90 105 10.4 18.2 0.00 0.00 0.00 55 1011.3
20260903160045 90 138 11.3 18.2 0.00 0.00 0.00 56 1011.3
20260903155526 90 135 10.4 18.2 0.00 0.00 0.00 56 1011.4
20260903155032 89 113 10.4 18.2 0.00 0.00 0.00 57 1011.5
20260903154603 88 144 9.6 18.2 0.00 0.00 0.00 58 1011.5
20260903154024 88 139 11.3 18.2 0.00 0.00 0.00 58 1011.5
20260903153525 88 137 12.2 18.2 0.00 0.00 0.00 59 1011.4
20260903153051 88 98 11.3 20.0 0.00 0.00 0.00 59 1011.4
20260903152525 87 115 11.3 20.0 0.00 0.00 0.00 60 1011.5
20260903152024 88 132 11.3 20.0 0.00 0.00 0.00 60 1011.4
20260903151546 87 106 9.6 20.0 0.00 0.00 0.00 61 1011.4
20260903151025 87 119 12.2 20.0 0.00 0.00 0.00 61 1011.4
20260903150526 87 119 12.2 19.1 0.00 0.00 0.00 62 1011.4
20260903150046 86 145 8.7 18.2 0.00 0.00 0.00 62 1011.4
20260903145528 86 126 11.3 20.0 0.00 0.00 0.00 62 1011.4
20260903145024 86 126 11.3 20.0 0.00 0.00 0.00 63 1011.4
20260903144543 85 121 13.0 20.0 0.00 0.00 0.00 63 1011.4
20260903144029 85 126 9.6 20.0 0.00 0.00 0.00 64 1011.5
20260903143525 85 141 9.6 17.4 0.00 0.00 0.00 65 1011.4
20260903143101 84 135 10.4 18.2 0.00 0.00 0.00 65 1011.5
20260903142527 84 126 9.6 18.2 0.00 0.00 0.00 66 1011.5
20260903142025 84 112 12.2 19.1 0.00 0.00 0.00 66 1011.7
20260903141559 83 113 9.6 19.1 0.00 0.00 0.00 68 1011.6
20260903141027 83 111 10.4 16.5 0.00 0.00 0.00 69 1011.7
20260903140524 82 134 10.4 16.5 0.00 0.00 0.00 70 1011.8
20260903140046 81 114 9.6 16.5 0.00 0.00 0.00 70 1011.8
20260903135524 81 114 10.4 18.2 0.00 0.00 0.00 71 1011.7
20260903135028 81 128 11.3 18.2 0.00 0.00 0.00 71 1011.8
20260903134557 80 110 12.2 18.2 0.00 0.00 0.00 72 1011.8
20260903134024 80 111 8.7 16.5 0.00 0.00 0.00 73 1011.7
20260903133524 79 113 7.8 16.5 0.00 0.00 0.00 74 1011.6
20260903133043 79 114 8.7 16.5 0.00 0.00 0.00 74 1011.6
20260903132524 78 89 8.7 13.0 0.00 0.00 0.00 75 1011.5
20260903132024 78 109 6.1 10.4 0.00 0.00 0.00 76 1011.5
20260903131548 77 136 7.0 12.2 0.00 0.00 0.00 77 1011.5
20260903131024 77 111 7.0 12.2 0.00 0.00 0.00 78 1011.5
20260903130526 76 115 5.2 10.4 0.00 0.00 0.00 79 1011.5
20260903130044 75 119 6.1 10.4 0.00 0.00 0.00 80 1011.4
20260903125525 75 111 6.1 11.3 0.00 0.00 0.00 80 1011.4
20260903125024 75 117 7.0 11.3 0.00 0.00 0.00 81 1011.4
20260903124545 74 102 7.0 11.3 0.00 0.00 0.00 81 1011.3
20260903124024 74 104 7.8 10.4 0.00 0.00 0.00 81 1011.3
20260903123526 74 96 7.0 9.6 0.00 0.00 0.00 81 1011.3
20260903123048 73 119 7.0 9.6 0.00 0.00 0.00 81 1011.1
20260903122524 73 115 7.0 9.6 0.00 0.00 0.00 81 1011.0
20260903122024 73 125 6.1 9.6 0.00 0.00 0.00 81 1011.1
20260903121544 73 109 6.1 9.6 0.00 0.00 0.00 81 1011.1
20260903121025 73 111 6.1 8.7 0.00 0.00 0.00 80 1011.0
20260903120523 73 101 5.2 7.8 0.00 0.00 0.00 80 1010.9
20260903120045 73 103 4.3 7.8 0.00 0.00 0.00 80 1010.9
20260903115524 73 111 5.2 7.8 0.00 0.00 0.00 80 1010.9
20260903115024 73 110 5.2 8.7 0.00 0.00 0.00 79 1010.8
20260903114545 73 109 4.3 8.7 0.00 0.00 0.00 79 1010.7
20260903114024 73 101 5.2 8.7 0.00 0.00 0.00 79 1010.6
20260903113524 73 107 5.2 7.8 0.00 0.00 0.00 79 1010.5
20260903113046 74 107 4.3 7.0 0.00 0.00 0.00 78 1010.6
20260903112524 74 98 5.2 7.0 0.00 0.00 0.00 78 1010.6
20260903112027 74 100 4.3 6.1 0.00 0.00 0.00 77 1010.7
20260903111544 74 92 2.6 6.1 0.00 0.00 0.00 77 1010.8
20260903111024 74 113 2.6 5.2 0.00 0.00 0.00 77 1010.7
20260903110525 74 119 2.6 6.1 0.00 0.00 0.00 77 1010.8
20260903110054 74 108 3.5 6.1 0.00 0.00 0.00 77 1010.6
20260903105525 74 108 2.6 5.2 0.00 0.00 0.00 76 1010.7
20260903105024 75 114 2.6 6.1 0.00 0.00 0.00 76 1010.6
20260903104547 75 117 2.6 6.1 0.00 0.00 0.00 76 1010.6
20260903104024 75 111 3.5 7.0 0.00 0.00 0.00 76 1010.6
20260903103523 75 117 3.5 7.0 0.00 0.00 0.00 75 1010.7
20260903103052 75 121 4.3 7.0 0.00 0.00 0.00 75 1010.6
20260903102522 75 115 4.3 7.0 0.00 0.00 0.00 75 1010.6
20260903102027 75 113 3.5 6.1 0.00 0.00 0.00 74 1010.7
20260903101554 75 115 2.6 6.1 0.00 0.00 0.00 73 1010.8
20260903101023 76 119 3.5 6.1 0.00 0.00 0.00 73 1010.6
20260903100525 76 111 3.5 6.1 0.00 0.00 0.00 73 1010.5
20260903100045 76 117 3.5 6.1 0.00 0.00 0.00 72 1010.6
20260903095523 76 110 3.5 6.1 0.00 0.00 0.00 72 1010.6
20260903095026 76 116 3.5 7.8 0.00 0.00 0.00 72 1010.6
20260903094545 76 117 4.3 7.8 0.00 0.00 0.00 71 1010.4
20260903094024 77 117 4.3 7.0 0.00 0.00 0.00 70 1010.5
20260903093525 77 109 3.5 7.0 0.00 0.00 0.00 70 1010.6
20260903093103 77 109 2.6 7.0 0.00 0.00 0.00 70 1010.6